^ Back to Top

Niederschlagsradar DWD

© Deutscher Wetterdienst, Offenbach (DWD)

Aviation WX

[source: ADDS]
METAR
EDDN 241450Z 10004KT 5000 BR BKN011 M08/M10 Q1028 R28/19//95 NOSIG =
TAF
TAF EDDN 241100Z 2412/2512 08004KT 4500 BR BKN010 TEMPO 2412/2421 2500 -SG BR OVC007 TEMPO 2421/2512 6000 BKN015 =
SR / SS: 06:55 / 15:59 UTC (ETHR 2017-01-24)

Statistiken

Besucher
47
Beiträge
36
Weblinks
10
Anzahl Beitragshäufigkeit
62969